Terminal Aerodrome Forecast
Issued by NWS Wilmington, NC

Home | Current Version | Previous Version | Text Only | Print | Product List | Glossary On
Versions: 1 2 3 4 5 6 7 8 9 10 11 12 13 14 15
000
FTUS42 KILM 311122 CCA
TAFLBT
TAF COR
KLBT 311122Z 3112/0112 VRB03KT 2SM RA BR SCT007 OVC025
     FM311300 10005KT 4SM -RA BR SCT007 OVC015
     FM311700 12008KT P6SM VCSH SCT015 SCT025 BKN050
     FM312300 VRB04KT P6SM SCT025 SCT050=

USA.gov is the U.S. government's official web portal to all federal, state and local government web resources and services.